Back to catalog

STARLINK-4717

AliveCommunicationsVLEO
NORAD 53705·PAYLOAD·🇺🇸 United States

Launched Sep 5, 2022 from Cape Canaveral Space Force Station

Loading…

Next Passes (next 24 hours)

TLE

FreshSource: CelesTrak SupGP

Epoch: Sep 15, 2026, 02:48 UTC

1 53705C 22107F   26258.11715278  .00021623  00000+0  61880-3 0  2584
2 53705  53.1591 110.6828 0001024  90.2535 349.9782 15.35379757    18

Track STARLINK-4717 in real time with AllMySat

Download on the App Store